TimePST,TemperatureF,Dew PointF,Humidity,Sea Level PressureIn,VisibilityMPH,Wind Direction,Wind SpeedMPH,Gust SpeedMPH,PrecipitationIn,Events,Conditions,WindDirDegrees,DateUTC
12:53 AM,37.0,28.0,70,30.17,10.0,ESE,3.5,-,N/A,,Overcast,110,2013-11-05 08:53:00
1:53 AM,37.0,28.0,70,30.15,10.0,East,3.5,-,N/A,,Overcast,100,2013-11-05 09:53:00
2:53 AM,37.9,30.0,73,30.14,10.0,Calm,Calm,-,N/A,,Overcast,0,2013-11-05 10:53:00
3:53 AM,37.0,33.1,86,30.13,10.0,NE,3.5,-,0.01,Rain,Light Rain,50,2013-11-05 11:53:00
4:53 AM,37.9,34.0,86,30.13,10.0,Calm,Calm,-,0.00,,Overcast,0,2013-11-05 12:53:00
5:53 AM,37.9,34.0,86,30.13,10.0,West,4.6,-,0.00,,Overcast,260,2013-11-05 13:53:00
6:53 AM,37.9,34.0,86,30.12,10.0,WSW,4.6,-,N/A,,Overcast,240,2013-11-05 14:53:00
7:53 AM,39.0,34.0,82,30.14,10.0,WSW,5.8,-,N/A,,Overcast,250,2013-11-05 15:53:00
8:53 AM,39.9,34.0,79,30.14,10.0,SW,4.6,-,N/A,,Overcast,230,2013-11-05 16:53:00
9:53 AM,42.1,35.1,76,30.15,10.0,Calm,Calm,-,0.00,Rain,Light Rain,0,2013-11-05 17:53:00
10:53 AM,43.0,36.0,76,30.15,10.0,South,3.5,-,0.00,,Overcast,190,2013-11-05 18:53:00
11:53 AM,45.0,36.0,71,30.13,10.0,Calm,Calm,-,N/A,,Overcast,0,2013-11-05 19:53:00
12:53 PM,46.9,37.9,71,30.12,10.0,ENE,3.5,-,0.00,,Overcast,70,2013-11-05 20:53:00
1:53 PM,48.0,39.9,74,30.12,10.0,Calm,Calm,-,0.00,,Overcast,0,2013-11-05 21:53:00
2:53 PM,48.0,39.9,74,30.11,10.0,SSE,5.8,-,0.00,,Mostly Cloudy,160,2013-11-05 22:53:00
3:53 PM,48.0,42.1,80,30.11,10.0,Calm,Calm,-,N/A,,Overcast,0,2013-11-05 23:53:00
4:53 PM,44.1,39.0,82,30.12,10.0,NNE,5.8,-,N/A,,Mostly Cloudy,30,2013-11-06 00:53:00
5:53 PM,42.1,37.0,82,30.14,10.0,NE,4.6,-,N/A,,Scattered Clouds,50,2013-11-06 01:53:00
6:53 PM,42.1,37.9,85,30.15,10.0,NE,3.5,-,N/A,,Clear,50,2013-11-06 02:53:00
7:53 PM,39.0,37.0,93,30.16,10.0,North,3.5,-,N/A,,Clear,360,2013-11-06 03:53:00
8:53 PM,36.0,34.0,93,30.18,3.0,ESE,3.5,-,N/A,,Clear,110,2013-11-06 04:53:00
8:59 PM,35.1,34.0,96,30.17,1.8,SE,3.5,-,N/A,,Clear,130,2013-11-06 04:59:00
9:08 PM,34.0,32.0,92,30.18,0.8,SSE,3.5,-,N/A,,Clear,160,2013-11-06 05:08:00
9:15 PM,35.1,33.1,92,30.18,2.0,Calm,Calm,-,N/A,,Clear,0,2013-11-06 05:15:00
9:24 PM,37.9,35.1,89,30.18,5.0,Calm,Calm,-,N/A,,Clear,0,2013-11-06 05:24:00
9:37 PM,35.1,35.1,100,30.19,1.5,Calm,Calm,-,N/A,,Clear,0,2013-11-06 05:37:00
9:46 PM,33.1,32.0,96,30.19,0.5,Calm,Calm,-,N/A,Fog,Fog,0,2013-11-06 05:46:00
9:53 PM,34.0,33.1,96,30.21,0.8,Calm,Calm,-,N/A,,Clear,0,2013-11-06 05:53:00
10:00 PM,35.1,34.0,96,30.19,1.0,Calm,Calm,-,N/A,,Clear,0,2013-11-06 06:00:00
10:09 PM,32.0,32.0,100,30.20,0.5,Calm,Calm,-,N/A,Fog,Fog,0,2013-11-06 06:09:00
10:24 PM,37.0,35.1,93,30.20,0.5,Calm,Calm,-,N/A,Fog,Fog,0,2013-11-06 06:24:00
10:53 PM,30.9,30.9,100,30.22,0.5,SSE,3.5,-,N/A,Fog,Light Freezing Fog,160,2013-11-06 06:53:00
11:15 PM,34.0,33.1,96,30.21,0.8,South,5.8,-,N/A,,Clear,180,2013-11-06 07:15:00
11:21 PM,34.0,33.1,96,30.21,2.0,SSE,5.8,-,N/A,,Clear,160,2013-11-06 07:21:00
11:28 PM,34.0,34.0,100,30.21,3.0,SSE,5.8,-,N/A,,Clear,160,2013-11-06 07:28:00
11:32 PM,34.0,34.0,100,30.21,1.8,Calm,Calm,-,N/A,,Clear,0,2013-11-06 07:32:00
11:50 PM,35.6,33.8,93,30.22,1.0,East,3.5,-,N/A,,Mist,100,2013-11-06 07:50:00
11:53 PM,33.1,32.0,96,30.23,0.5,Calm,Calm,-,N/A,Fog,Fog,0,2013-11-06 07:53:00